| time (UTC) | temp F | wind direction | speed MPH | gust MPH | rain 1hr in | rain 24hr in | rain mn in | humidity % | barometer mb |
| 20260510044534 | 68 | 215 | 9.0 | 11.0 | 0.00 | 0.00 | 0.00 | 95 | 1010.6 |
| 20260510043039 | 68 | 250 | 7.0 | 11.0 | 0.00 | 0.00 | 0.00 | 95 | 1010.5 |
| 20260510041550 | 68 | 231 | 7.0 | 10.0 | 0.00 | 0.00 | 0.00 | 95 | 1010.6 |
| 20260510040037 | 68 | 215 | 6.0 | 9.0 | 0.00 | 0.00 | 0.00 | 94 | 1010.5 |
| 20260510023035 | 68 | 232 | 6.0 | 9.0 | 0.00 | 0.00 | 0.00 | 93 | 1010.2 |
| 20260510011621 | 69 | 234 | 6.0 | 12.0 | 0.00 | 0.00 | 0.00 | 92 | 1010.3 |
| 20260510001638 | 69 | 202 | 8.0 | 13.0 | 0.00 | 0.00 | 0.00 | 92 | 1009.6 |
| 20260510000018 | 69 | 229 | 7.0 | 13.0 | 0.00 | 0.00 | 0.00 | 92 | 1009.4 |
| 20260509201604 | 70 | 213 | 6.0 | 13.0 | 0.00 | 0.00 | 0.00 | 88 | 1009.8 |
| 20260509184640 | 71 | 206 | 9.0 | 15.0 | 0.00 | 0.00 | 0.00 | 85 | 1010.1 |
| 20260509183112 | 72 | 215 | 9.0 | 23.0 | 0.00 | 0.00 | 0.00 | 85 | 1010.0 |
| 20260509174658 | 71 | 194 | 13.0 | 25.0 | 0.00 | 0.00 | 0.00 | 83 | 1010.0 |
| 20260509163106 | 69 | 208 | 8.0 | 18.0 | 0.00 | 0.00 | 0.00 | 87 | 1011.3 |
| 20260509154605 | 69 | 154 | 11.0 | 26.0 | 0.00 | 0.00 | 0.00 | 83 | 1012.1 |
| 20260509134535 | 69 | 138 | 15.0 | 26.0 | 0.00 | 0.00 | 0.00 | 77 | 1012.3 |
| 20260509124649 | 69 | 154 | 16.0 | 27.0 | 0.00 | 0.00 | 0.00 | 73 | 1012.8 |
| 20260509113044 | 68 | 159 | 12.0 | 23.0 | 0.00 | 0.00 | 0.00 | 75 | 1013.0 |
| 20260509111516 | 68 | 157 | 14.0 | 23.0 | 0.00 | 0.00 | 0.00 | 76 | 1013.1 |
| 20260509103153 | 67 | 174 | 13.0 | 25.0 | 0.00 | 0.00 | 0.00 | 75 | 1013.3 |
| 20260509090124 | 67 | 156 | 9.0 | 19.0 | 0.00 | 0.00 | 0.00 | 75 | 1013.1 |
| 20260509080135 | 67 | 187 | 11.0 | 15.0 | 0.00 | 0.00 | 0.00 | 75 | 1013.6 |
| 20260509070013 | 66 | 166 | 8.0 | 14.0 | 0.00 | 0.00 | 0.00 | 76 | 1013.7 |
| 20260509064539 | 66 | 180 | 6.0 | 11.0 | 0.00 | 0.00 | 0.00 | 76 | 1013.7 |
| 20260509060016 | 66 | 173 | 5.0 | 10.0 | 0.00 | 0.00 | 0.00 | 74 | 1014.5 |
| 20260509054513 | 65 | 174 | 6.0 | 11.0 | 0.00 | 0.00 | 0.00 | 75 | 1014.5 |
| 20260509053054 | 65 | 201 | 6.0 | 11.0 | 0.00 | 0.00 | 0.00 | 78 | 1014.5 |
| 20260509051555 | 65 | 192 | 4.0 | 7.0 | 0.00 | 0.00 | 0.00 | 83 | 1014.5 |
| 20260509050100 | 65 | 142 | 2.0 | 6.0 | 0.00 | 0.00 | 0.00 | 83 | 1014.7 |